Location: DAV
(33.5613°N, 82.7640°W)
Time: 15:59:42
(UTC-04:00)

N. Korean satellite - Visible Passes

Search period start: 31 October 2020 00:00
Search period end: 09 November 2020 23:00
Orbit: 452 x 505 km, 97.2° (Epoch: 31 October)

Date Brightness Start Highest point End Pass type
(mag) Time Alt. Az. Time Alt. Az. Time Alt. Az.
31 Oct 10.1 06:03:19 10° ENE 06:04:47 12° E 06:06:14 10° ESE visible
01 Nov 6.4 06:08:41 10° N 06:12:05 63° WNW 06:15:28 10° SSW visible
01 Nov 9.9 18:14:15 10° SW 18:16:26 15° W 18:18:36 10° WNW visible
02 Nov 7.5 05:42:37 10° NNE 05:45:57 48° E 05:49:16 10° S visible
03 Nov 9.3 05:17:09 10° NE 05:19:44 20° E 05:22:20 10° SE visible
04 Nov 7.0 06:23:43 10° N 06:26:54 36° WNW 06:30:05 10° SW visible
05 Nov 6.5 05:57:22 10° NNE 06:00:48 85° E 06:04:15 10° S visible
05 Nov 9.6 18:02:21 10° SSW 18:05:06 21° W 18:07:50 10° NW visible
06 Nov 8.4 05:31:30 10° NNE 05:34:38 32° E 05:37:46 10° SSE visible
07 Nov 9.9 05:06:27 10° ENE 05:08:22 14° E 05:10:18 10° SE visible
08 Nov 6.5 06:12:13 10° N 06:15:35 55° WNW 06:19:00 10° SSW visible
08 Nov 10.0 18:18:15 10° SW 18:19:59 13° W 18:21:44 10° WNW visible
09 Nov 7.2 05:46:04 10° NNE 05:49:27 56° E 05:52:53 10° S visible
